K7KLA-2 Weather Reports


time (UTC)temp
C
wind
direction
speed
KPH
gust
KPH
rain 1hr
cm
rain 24hr
cm
rain mn
cm
humidity
%
barometer
mb
20260505122458 12 128 3.2 4.8 0.00 0.00 0.00 78 1009.4
20260505121957 12 128 1.6 3.2 0.00 0.00 0.00 76 1009.4
20260505121456 12 128 1.6 6.4 0.00 0.00 0.00 76 1009.2
20260505120958 12 119 4.8 6.4 0.00 0.00 0.00 78 1009.1
20260505120456 12 126 3.2 4.8 0.00 0.00 0.00 78 1009.2
20260505115957 12 106 1.6 4.8 0.00 0.00 0.00 79 1009.1
20260505114958 11 124 4.8 6.4 0.00 0.00 0.00 79 1009.1
20260505114457 12 103 4.8 8.0 0.00 0.00 0.00 79 1009.0
20260505113957 12 106 4.8 6.4 0.00 0.00 0.00 79 1009.0
20260505112957 12 108 4.8 6.4 0.00 0.00 0.00 78 1008.8
20260505112457 12 109 4.8 4.8 0.00 0.00 0.00 78 1008.8
20260505111957 12 101 3.2 6.4 0.00 0.00 0.00 78 1008.8
20260505110958 12 103 3.2 4.8 0.00 0.00 0.00 77 1008.6
20260505110457 12 105 1.6 8.0 0.00 0.00 0.00 77 1008.6
20260505101959 13 92 4.8 8.0 0.00 0.00 0.00 74 1008.3
20260505101457 13 88 3.2 6.4 0.00 0.00 0.00 74 1008.2
20260505100957 13 88 3.2 6.4 0.00 0.00 0.00 75 1008.1
20260505100457 13 103 4.8 6.4 0.00 0.00 0.00 76 1008.1
20260505100000 13 100 6.4 9.7 0.00 0.00 0.00 76 1008.0
20260505094957 12 96 4.8 8.0 0.00 0.00 0.00 75 1007.9
20260505094457 13 101 4.8 4.8 0.00 0.00 0.00 74 1007.9
20260505093959 13 96 3.2 4.8 0.00 0.00 0.00 74 1007.9
20260505093456 13 96 3.2 4.8 0.00 0.00 0.00 73 1007.9
20260505092958 13 123 3.2 4.8 0.00 0.00 0.00 74 1007.9
20260505091957 13 96 3.2 4.8 0.00 0.00 0.00 74 1007.8
20260505091456 13 95 1.6 3.2 0.00 0.00 0.00 74 1007.8
20260505090956 13 95 0.0 4.8 0.00 0.00 0.00 73 1007.7
20260505090456 13 95 3.2 8.0 0.00 0.00 0.00 72 1007.7
20260505085959 13 95 4.8 8.0 0.00 0.00 0.00 72 1007.7
20260505085456 14 107 3.2 4.8 0.00 0.00 0.00 70 1007.7
20260505084957 14 98 3.2 4.8 0.00 0.00 0.00 70 1007.6
20260505084457 14 136 1.6 4.8 0.00 0.00 0.00 70 1007.5
20260505083457 15 129 3.2 6.4 0.00 0.00 0.00 69 1007.5
20260505082957 15 117 4.8 9.7 0.00 0.00 0.00 68 1007.5
20260505082456 15 126 4.8 12.9 0.00 0.00 0.00 68 1007.5
20260505081958 15 128 6.4 12.9 0.00 0.00 0.00 68 1007.5
20260505081456 15 145 4.8 9.7 0.00 0.00 0.00 69 1007.4
20260505080957 15 136 6.4 11.3 0.00 0.00 0.00 68 1007.4
20260505080458 15 136 6.4 9.7 0.00 0.00 0.00 68 1007.3
20260505075457 14 180 3.2 4.8 0.00 0.00 0.00 72 1007.2
20260505074457 14 132 3.2 4.8 0.00 0.00 0.00 72 1007.3
20260505073958 14 143 1.6 3.2 0.00 0.00 0.00 73 1007.3
20260505073457 14 86 1.6 1.6 0.00 0.00 0.00 73 1007.1
20260505072957 14 86 0.0 1.6 0.00 0.00 0.00 73 1007.0
20260505072457 13 86 0.0 0.0 0.00 0.00 0.00 74 1006.9
20260505071957 13 86 0.0 0.0 0.00 0.00 0.00 74 1006.8
20260505071500 13 86 0.0 0.0 0.00 0.00 0.00 73 1006.7
20260505071000 14 86 0.0 0.0 0.00 0.00 0.00 72 1006.7
20260505070459 14 86 0.0 1.6 0.00 0.00 0.00 72 1006.6
20260505070000 14 86 0.0 1.6 0.00 0.00 0.00 72 1006.5
20260505065458 14 86 0.0 0.0 0.00 0.00 0.00 70 1006.4
20260505065000 14 86 0.0 0.0 0.00 0.00 0.00 69 1006.4
20260505064459 15 86 0.0 1.6 0.00 0.00 0.00 69 1006.3
20260505064003 15 86 0.0 1.6 0.00 0.00 0.00 70 1006.3
20260505063500 15 86 0.0 0.0 0.00 0.00 0.00 68 1006.3
20260505063000 15 86 0.0 3.2 0.00 0.00 0.00 67 1006.3
20260505062000 15 86 0.0 1.6 0.00 0.00 0.00 68 1006.3
20260505061500 16 86 0.0 3.2 0.00 0.00 0.00 65 1006.3
20260505061000 16 86 0.0 3.2 0.00 0.00 0.00 65 1006.2
20260505060500 16 86 1.6 1.6 0.00 0.00 0.00 65 1006.2
20260505060000 16 86 0.0 1.6 0.00 0.00 0.00 64 1006.1
20260505055459 16 86 0.0 1.6 0.00 0.00 0.00 62 1006.1
20260505055000 17 81 0.0 0.0 0.00 0.00 0.00 63 1006.1
20260505054458 16 81 0.0 1.6 0.00 0.00 0.00 63 1006.0
20260505053959 17 81 0.0 3.2 0.00 0.00 0.00 63 1006.0
20260505053459 17 81 1.6 8.0 0.00 0.00 0.00 62 1006.0
20260505053000 17 76 3.2 8.0 0.00 0.00 0.00 62 1006.0
20260505052458 17 74 4.8 8.0 0.00 0.00 0.00 62 1006.1
20260505051959 17 88 4.8 12.9 0.00 0.00 0.00 62 1006.1
20260505051458 17 63 6.4 12.9 0.00 0.00 0.00 62 1006.0
20260505050959 17 83 4.8 9.7 0.00 0.00 0.00 61 1006.0
20260505041507 18 84 4.8 8.0 0.00 0.00 0.00 60 1006.0
20260505040459 19 98 6.4 11.3 0.00 0.00 0.00 59 1006.0
20260505040004 19 102 6.4 11.3 0.00 0.00 0.00 61 1005.9
20260505034959 19 81 6.4 12.9 0.00 0.00 0.00 60 1005.8
20260505034458 20 84 8.0 12.9 0.00 0.00 0.00 59 1005.8
20260505033958 20 110 4.8 9.7 0.00 0.00 0.00 59 1005.7
20260505033458 20 115 6.4 8.0 0.00 0.00 0.00 58 1005.7
20260505032959 21 87 6.4 11.3 0.00 0.00 0.00 57 1005.6
20260505031959 21 110 8.0 11.3 0.00 0.00 0.00 54 1005.5
20260505030959 22 83 4.8 8.0 0.00 0.00 0.00 50 1005.3
20260505030459 23 110 3.2 4.8 0.00 0.00 0.00 48 1005.2
20260505025959 23 112 3.2 4.8 0.00 0.00 0.00 46 1005.2
20260505025458 23 112 3.2 4.8 0.00 0.00 0.00 45 1005.2
20260505024000 24 107 1.6 4.8 0.00 0.00 0.00 43 1005.1
20260505022959 25 111 3.2 6.4 0.00 0.00 0.00 40 1005.1
20260505022005 26 111 3.2 6.4 0.00 0.00 0.00 37 1005.1
20260505021458 26 134 3.2 6.4 0.00 0.00 0.00 36 1005.1
20260505021001 26 136 4.8 6.4 0.00 0.00 0.00 35 1005.2
20260505020458 26 135 3.2 6.4 0.00 0.00 0.00 34 1005.1
20260505020007 26 174 4.8 6.4 0.00 0.00 0.00 34 1005.2
20260505015459 26 190 3.2 9.7 0.00 0.00 0.00 34 1005.2
20260505015005 26 178 3.2 8.0 0.00 0.00 0.00 34 1005.3
20260505014004 27 174 3.2 9.7 0.00 0.00 0.00 34 1005.4
20260505013458 27 165 4.8 9.7 0.00 0.00 0.00 33 1005.5
20260505013000 27 159 4.8 9.7 0.00 0.00 0.00 33 1005.5
20260505012458 27 169 4.8 9.7 0.00 0.00 0.00 32 1005.5
20260505012001 27 108 4.8 9.7 0.00 0.00 0.00 34 1005.6
20260505011458 27 175 4.8 9.7 0.00 0.00 0.00 33 1005.6
20260505011005 27 165 4.8 11.3 0.00 0.00 0.00 32 1005.6
20260505010458 27 209 4.8 11.3 0.00 0.00 0.00 33 1005.6
20260505010006 27 119 4.8 11.3 0.00 0.00 0.00 34 1005.7
20260505005459 27 138 4.8 11.3 0.00 0.00 0.00 32 1005.7
20260505005004 27 132 6.4 8.0 0.00 0.00 0.00 31 1005.7
20260505004458 27 196 3.2 9.7 0.00 0.00 0.00 36 1005.8
20260505003005 27 202 3.2 11.3 0.00 0.00 0.00 33 1005.9
20260505002459 27 132 6.4 11.3 0.00 0.00 0.00 32 1005.9
20260505002004 27 115 3.2 11.3 0.00 0.00 0.00 33 1006.0
20260505001458 28 126 4.8 12.9 0.00 0.00 0.00 31 1006.0
20260505001003 27 56 1.6 12.9 0.00 0.00 0.00 33 1006.0
20260505000458 27 89 8.0 12.9 0.00 0.00 0.00 32 1006.1
20260505000001 27 159 3.2 14.5 0.00 0.00 0.00 31 1006.0
20260504235002 27 166 1.6 11.3 0.00 0.00 0.00 32 1006.0
20260504234458 28 159 4.8 11.3 0.00 0.00 0.00 30 1006.0
20260504233000 28 190 1.6 6.4 0.00 0.00 0.00 30 1006.1
20260504231959 28 282 4.8 9.7 0.00 0.00 0.00 31 1006.1
20260504231457 28 240 6.4 12.9 0.00 0.00 0.00 31 1006.2
20260504230003 28 123 3.2 8.0 0.00 0.00 0.00 30 1006.4
20260504225458 28 198 4.8 14.5 0.00 0.00 0.00 29 1006.4
20260504224959 28 248 8.0 14.5 0.00 0.00 0.00 29 1006.4
20260504224458 28 217 4.8 12.9 0.00 0.00 0.00 31 1006.5
20260504223458 29 207 6.4 12.9 0.00 0.00 0.00 29 1006.6
20260504223001 28 116 3.2 14.5 0.00 0.00 0.00 28 1006.7
20260504222458 28 217 4.8 14.5 0.00 0.00 0.00 28 1006.7
20260504221959 28 217 6.4 11.3 0.00 0.00 0.00 30 1006.8
20260504221457 28 168 4.8 9.7 0.00 0.00 0.00 30 1006.8
20260504220958 28 137 4.8 9.7 0.00 0.00 0.00 30 1006.8
20260504220457 28 134 4.8 14.5 0.00 0.00 0.00 29 1006.9
20260504220003 28 133 6.4 14.5 0.00 0.00 0.00 33 1007.0
20260504215458 28 225 6.4 12.9 0.00 0.00 0.00 29 1007.1
20260504214458 27 184 3.2 8.0 0.00 0.00 0.00 31 1007.2
20260504214000 27 242 3.2 8.0 0.00 0.00 0.00 34 1007.2
20260504213457 27 130 1.6 9.7 0.00 0.00 0.00 35 1007.4
20260504213000 28 207 4.8 11.3 0.00 0.00 0.00 33 1007.3
20260504212458 28 169 8.0 11.3 0.00 0.00 0.00 34 1007.4
20260504212000 28 177 3.2 9.7 0.00 0.00 0.00 35 1007.5
20260504211457 27 194 6.4 9.7 0.00 0.00 0.00 36 1007.5
20260504210958 27 188 4.8 8.0 0.00 0.00 0.00 32 1007.5
20260504210457 27 9 3.2 6.4 0.00 0.00 0.00 34 1007.6
20260504205959 27 355 1.6 9.7 0.00 0.00 0.00 33 1007.7
20260504205000 27 209 4.8 11.3 0.00 0.00 0.00 37 1007.8
20260504204458 27 28 3.2 8.0 0.00 0.00 0.00 36 1007.8
20260504203959 27 242 1.6 8.0 0.00 0.00 0.00 33 1007.9
20260504203458 27 219 4.8 8.0 0.00 0.00 0.00 40 1007.9
20260504203000 27 268 1.6 9.7 0.00 0.00 0.00 39 1008.0
20260504202458 27 223 1.6 9.7 0.00 0.00 0.00 40 1008.0
20260504202000 26 260 4.8 14.5 0.00 0.00 0.00 42 1008.1
20260504201458 26 270 3.2 14.5 0.00 0.00 0.00 37 1008.2
20260504200458 26 259 4.8 12.9 0.00 0.00 0.00 44 1008.1
20260504200001 27 315 6.4 12.9 0.00 0.00 0.00 44 1008.1
20260504195459 27 243 4.8 12.9 0.00 0.00 0.00 42 1008.1
20260504194959 27 213 3.2 12.9 0.00 0.00 0.00 38 1008.2
20260504194457 26 237 3.2 9.7 0.00 0.00 0.00 40 1008.2
20260504193958 26 200 4.8 12.9 0.00 0.00 0.00 43 1008.3
20260504193457 26 247 8.0 12.9 0.00 0.00 0.00 40 1008.3
20260504192457 26 272 6.4 12.9 0.00 0.00 0.00 44 1008.3
20260504191959 26 243 1.6 16.1 0.00 0.00 0.00 45 1008.3
20260504191457 26 240 8.0 16.1 0.00 0.00 0.00 42 1008.3
20260504190958 26 263 8.0 12.9 0.00 0.00 0.00 46 1008.3
20260504190457 26 250 4.8 12.9 0.00 0.00 0.00 43 1008.3
20260504190002 25 221 4.8 12.9 0.00 0.00 0.00 43 1008.4
20260504184958 26 182 3.2 12.9 0.00 0.00 0.00 43 1008.5
20260504184458 25 203 6.4 11.3 0.00 0.00 0.00 37 1008.5
20260504183958 25 241 4.8 11.3 0.00 0.00 0.00 39 1008.5
20260504182958 25 246 6.4 14.5 0.00 0.00 0.00 39 1008.5
20260504182458 25 262 4.8 14.5 0.00 0.00 0.00 39 1008.5
20260504181458 24 192 8.0 14.5 0.00 0.00 0.00 39 1008.6
20260504180958 24 249 3.2 9.7 0.00 0.00 0.00 43 1008.7
20260504180459 23 244 6.4 12.9 0.00 0.00 0.00 43 1008.7
20260504175958 23 268 4.8 14.5 0.00 0.00 0.00 42 1008.8
20260504175457 23 186 8.0 14.5 0.00 0.00 0.00 42 1008.9
20260504174958 23 213 8.0 12.9 0.00 0.00 0.00 43 1008.8
20260504174457 23 269 1.6 9.7 0.00 0.00 0.00 43 1008.8
20260504173958 23 246 3.2 9.7 0.00 0.00 0.00 48 1008.8
20260504173457 22 265 4.8 11.3 0.00 0.00 0.00 46 1008.8
20260504172957 23 279 6.4 11.3 0.00 0.00 0.00 48 1008.8
20260504172458 22 269 6.4 12.9 0.00 0.00 0.00 48 1008.8
20260504171958 22 335 6.4 11.3 0.00 0.00 0.00 46 1008.7
20260504171458 22 247 6.4 11.3 0.00 0.00 0.00 47 1008.7
20260504170958 22 253 6.4 11.3 0.00 0.00 0.00 48 1008.7
20260504170458 22 323 8.0 11.3 0.00 0.00 0.00 48 1008.7
20260504150958 18 169 1.6 3.2 0.00 0.00 0.00 56 1008.6
20260504150457 17 169 1.6 3.2 0.00 0.00 0.00 60 1008.6
20260504140958 13 44 0.0 1.6 0.00 0.00 0.00 75 1008.4
20260504140457 12 44 0.0 1.6 0.00 0.00 0.00 77 1008.3
20260504130455 10 57 0.0 3.2 0.00 0.00 0.00 78 1007.7